Weather History for KCGZ - May, 2014

Change the Weather History Date:

Tuesday, May 13, 2014

  Actual Average Record
Temperature  
Mean Temperature 76 °F -  
Max Temperature 87 °F 90 °F 100 °F (2002)
Min Temperature 64 °F 59 °F 51 °F (2000)
Cooling Degree Days 10    
Growing Degree Days 26 (Base 50)    
Moisture  
Dew Point 20 °F    
Average Humidity 12    
Maximum Humidity 18    
Minimum Humidity 10    
Precipitation  
Precipitation 0.00 in - - ()
Sea Level Pressure  
Sea Level Pressure 30.07 in    
Wind  
Wind Speed 12 mph (NNE)    
Max Wind Speed 20 mph    
Max Gust Speed 25 mph    
Visibility 10 miles    
Events      
Averages and records for this station are not official NWS values.
T = Trace of Precipitation, MM = Missing Value Source: NWS Daily Summary

Daily Weather History Graph

Daily Weather History Graph

Search for Another Location

Airport or City:

Trip Planner

Search our weather history database for the weather conditions in past years. The results will help you decide how hot, cold, wet, or windy it might be!

Date:

Astronomy

May. 13, 2014 Rise Set
Actual Time 5:29 AM MST 7:18 PM MST
Civil Twilight 5:02 AM MST 7:45 PM MST
Nautical Twilight 4:29 AM MST 8:18 PM MST
Astronomical Twilight 3:54 AM MST 8:52 PM MST
Moon 6:26 PM MST (5/13) 4:43 AM MST (5/13)
Length of Visible Light 14h 43m
Length of Day
13h 48m
Waxing Gibbous, 99% of the Moon is Illuminated
May 13
Waxing Gibbous
May 14
Full
May 21
Last Quarter
May 28
New
Jun 5
First Quarter

Hourly Weather History & Observations

Time (MST) Temp. Dew Point Humidity Pressure Visibility Wind Dir Wind Speed Gust Speed Precip Events Conditions
12:35 AM 66.2 °F 17.6 °F 15% 30.01 in 10.0 mi NNE 6.9 mph - N/A   Clear
12:55 AM 71.6 °F 19.4 °F 14% 30.01 in 10.0 mi NE 10.4 mph - N/A   Clear
1:15 AM 71.6 °F 17.6 °F 13% 30.02 in 10.0 mi NE 17.3 mph 23.0 mph N/A   Clear
1:35 AM 71.6 °F 15.8 °F 12% 30.02 in 10.0 mi NE 15.0 mph 21.9 mph N/A   Clear
1:55 AM 71.6 °F 15.8 °F 12% 30.03 in 10.0 mi NE 16.1 mph 19.6 mph N/A   Clear
2:15 AM 71.6 °F 15.8 °F 12% 30.03 in 10.0 mi NNE 11.5 mph 20.7 mph N/A   Clear
2:35 AM 69.8 °F 15.8 °F 13% 30.03 in 10.0 mi NE 9.2 mph - N/A   Clear
2:55 AM 69.8 °F 15.8 °F 13% 30.03 in 10.0 mi NE 11.5 mph 18.4 mph N/A   Clear
3:15 AM 69.8 °F 15.8 °F 13% 30.04 in 10.0 mi NNE 15.0 mph 19.6 mph N/A   Clear
3:35 AM 69.8 °F 15.8 °F 13% 30.05 in 10.0 mi NNE 15.0 mph - N/A   Clear
3:55 AM 68.0 °F 15.8 °F 13% 30.06 in 10.0 mi NNE 11.5 mph - N/A   Clear
4:15 AM 68.0 °F 15.8 °F 13% 30.06 in 10.0 mi North 5.8 mph - N/A   Clear
4:35 AM 64.4 °F 12.2 °F 13% 30.07 in 10.0 mi North 9.2 mph - N/A   Clear
4:55 AM 64.4 °F 15.8 °F 15% 30.07 in 10.0 mi NNW 11.5 mph - N/A   Clear
5:15 AM 64.4 °F 17.6 °F 16% 30.08 in 10.0 mi North 9.2 mph - N/A   Clear
6:15 AM 64.4 °F 19.4 °F 18% 30.11 in 10.0 mi North 8.1 mph - N/A   Clear
6:35 AM 66.2 °F 19.4 °F 17% 30.12 in 10.0 mi North 9.2 mph - N/A   Clear
6:55 AM 66.2 °F 19.4 °F 17% 30.12 in 10.0 mi North 9.2 mph - N/A   Clear
7:15 AM 68.0 °F 19.4 °F 16% 30.12 in 10.0 mi North 8.1 mph - N/A   Clear
7:55 AM 71.6 °F 19.4 °F 14% 30.12 in 10.0 mi NNE 15.0 mph - N/A   Clear
9:35 AM 75.2 °F 21.2 °F 13% 30.13 in 10.0 mi NNE 19.6 mph 25.3 mph N/A   Clear
9:55 AM 77.0 °F 21.2 °F 12% 30.13 in 10.0 mi NNE 18.4 mph 24.2 mph N/A   Clear
10:35 AM 78.8 °F 21.2 °F 12% 30.12 in 10.0 mi ENE 16.1 mph 23.0 mph N/A   Clear
10:55 AM 80.6 °F 21.2 °F 11% 30.12 in 10.0 mi North 17.3 mph 23.0 mph N/A   Clear
11:15 AM 80.6 °F 21.2 °F 11% 30.12 in 10.0 mi ENE 8.1 mph - N/A   Clear
11:35 AM 80.6 °F 21.2 °F 11% 30.12 in 10.0 mi NE 15.0 mph 18.4 mph N/A   Clear
11:55 AM 82.4 °F 21.2 °F 10% 30.11 in 10.0 mi North 8.1 mph 17.3 mph N/A   Clear
12:15 PM 80.6 °F 21.2 °F 11% 30.11 in 10.0 mi NE 8.1 mph 17.3 mph N/A   Clear
12:35 PM 82.4 °F 23.0 °F 11% 30.10 in 10.0 mi North 15.0 mph 25.3 mph N/A   Clear
12:55 PM 82.4 °F 21.2 °F 10% 30.09 in 10.0 mi NNE 16.1 mph 21.9 mph N/A   Clear
1:15 PM 84.2 °F 23.0 °F 11% 30.09 in 10.0 mi NNE 10.4 mph 20.7 mph N/A   Clear
1:35 PM 84.2 °F 23.0 °F 11% 30.08 in 10.0 mi NNE 13.8 mph 19.6 mph N/A   Clear
1:55 PM 84.2 °F 24.8 °F 11% 30.07 in 10.0 mi NNE 12.7 mph 21.9 mph N/A   Clear
2:15 PM 84.2 °F 24.8 °F 11% 30.07 in 10.0 mi NE 8.1 mph 21.9 mph N/A   Clear
2:35 PM 84.2 °F 24.8 °F 11% 30.06 in 10.0 mi North 12.7 mph 21.9 mph N/A   Clear
2:55 PM 87.8 °F 24.8 °F 10% 30.05 in 10.0 mi NNE 19.6 mph 24.2 mph N/A   Clear
3:15 PM 87.8 °F 24.8 °F 10% 30.05 in 10.0 mi NNE 12.7 mph 20.7 mph N/A   Clear
3:35 PM 86.0 °F 24.8 °F 11% 30.04 in 10.0 mi NE 6.9 mph 21.9 mph N/A   Clear
3:55 PM 86.0 °F 24.8 °F 11% 30.03 in 10.0 mi North 10.4 mph - N/A   Clear
4:15 PM 87.8 °F 24.8 °F 10% 30.03 in 10.0 mi North 11.5 mph 19.6 mph N/A   Clear
4:35 PM 87.8 °F 24.8 °F 10% 30.03 in 10.0 mi NNW 16.1 mph 21.9 mph N/A   Clear
4:55 PM 87.8 °F 24.8 °F 10% 30.03 in 10.0 mi NNE 17.3 mph - N/A   Clear
5:15 PM 87.8 °F 24.8 °F 10% 30.03 in 10.0 mi North 18.4 mph - N/A   Clear
5:35 PM 86.0 °F 24.8 °F 11% 30.03 in 10.0 mi North 12.7 mph 20.7 mph N/A   Clear
5:55 PM 84.2 °F 24.8 °F 11% 30.03 in 10.0 mi North 18.4 mph 24.2 mph N/A   Clear
6:15 PM 84.2 °F 23.0 °F 11% 30.03 in 10.0 mi North 15.0 mph 21.9 mph N/A   Clear
6:35 PM 84.2 °F 23.0 °F 11% 30.03 in 10.0 mi North 15.0 mph 19.6 mph N/A   Clear
6:55 PM 82.4 °F 21.2 °F 10% 30.03 in 10.0 mi North 8.1 mph 20.7 mph N/A   Clear
7:15 PM 82.4 °F 21.2 °F 10% 30.04 in 10.0 mi North 11.5 mph - N/A   Clear
7:55 PM 78.8 °F 19.4 °F 11% 30.05 in 10.0 mi North 10.4 mph - N/A   Clear
8:15 PM 78.8 °F 19.4 °F 11% 30.05 in 10.0 mi NNE 8.1 mph - N/A   Clear
8:35 PM 78.8 °F 17.6 °F 10% 30.06 in 10.0 mi NNE 9.2 mph - N/A   Clear
8:55 PM 78.8 °F 17.6 °F 10% 30.07 in 10.0 mi NNE 10.4 mph - N/A   Clear
9:15 PM 78.8 °F 17.6 °F 10% 30.07 in 10.0 mi NE 17.3 mph 20.7 mph N/A   Clear
9:35 PM 77.0 °F 17.6 °F 11% 30.08 in 10.0 mi NNE 13.8 mph - N/A   Clear
9:55 PM 75.2 °F 17.6 °F 11% 30.09 in 10.0 mi NNE 12.7 mph - N/A   Clear
10:15 PM 75.2 °F 17.6 °F 11% 30.09 in 10.0 mi NNE 12.7 mph - N/A   Clear
10:35 PM 73.4 °F 15.8 °F 11% 30.10 in 10.0 mi NNE 10.4 mph - N/A   Clear
10:55 PM 71.6 °F 14.0 °F 11% 30.10 in 10.0 mi North 9.2 mph - N/A   Clear
11:15 PM 71.6 °F 14.0 °F 11% 30.10 in 10.0 mi North 9.2 mph - N/A   Clear
11:35 PM 71.6 °F 12.2 °F 10% 30.10 in 10.0 mi North 10.4 mph - N/A   Clear
11:55 PM 69.8 °F 12.2 °F 11% 30.10 in 10.0 mi North 9.2 mph - N/A   Clear